Total_Precipitation_Accumulation
1.24 1.47 1.32 0.93 0.85 0.73 0.64 0.69 0.59 0.40 0.38 0.52 0.53 0.43 0.31 0.30 0.36 0.44 0.49 0.54 0.50 0.54 0.60 0.67 0.79 0.97 1.18 1.23 1.27 1.40 1.45 1.62 1.85 2.07 2.24 2.27 2.31 2.21 2.16 2.09 2.01 1.95 1.98 1.99
1.36 1.21 0.71 0.53 0.61 0.70 0.75 0.83 0.65 0.45 0.37 0.56 0.56 0.46 0.33 0.31 0.36 0.44 0.45 0.53 0.56 0.56 0.62 0.70 0.80 0.94 1.18 1.27 1.27 1.40 1.50 1.60 1.67 1.80 1.97 2.07 2.21 2.26 2.21 2.12 2.13 2.01 1.93 1.91
1.05 0.72 0.42 0.61 0.77 0.90 0.83 0.74 0.61 0.55 0.52 0.61 0.70 0.66 0.41 0.35 0.32 0.39 0.44 0.51 0.63 0.66 0.67 0.71 0.78 0.91 1.16 1.32 1.33 1.37 1.46 1.59 1.66 1.79 2.01 2.15 2.36 2.44 2.47 2.27 2.13 2.07 2.03 1.93
0.76 0.46 0.46 0.71 0.84 0.93 0.88 0.51 0.51 0.60 0.90 1.01 0.87 1.01 0.51 0.37 0.35 0.41 0.46 0.50 0.63 0.68 0.67 0.73 0.75 0.85 1.04 1.23 1.36 1.41 1.52 1.62 1.66 1.84 2.04 2.06 2.22 2.27 2.22 2.10 2.01 1.95 1.97 1.96
0.89 0.53 0.53 0.68 0.62 0.70 0.73 0.47 0.58 0.73 1.00 1.17 0.87 0.98 0.57 0.33 0.41 0.41 0.46 0.49 0.59 0.67 0.64 0.72 0.75 0.75 0.88 1.05 1.24 1.37 1.56 1.71 1.73 1.77 1.97 2.03 1.99 2.06 2.15 2.20 2.14 2.04 1.98 1.93
0.70 0.50 0.58 0.52 0.41 0.51 0.67 0.78 0.95 1.10 1.58 1.85 0.78 0.76 0.62 0.51 0.60 0.50 0.46 0.52 0.60 0.67 0.70 0.72 0.71 0.70 0.82 0.98 1.15 1.30 1.47 1.63 1.73 1.74 1.85 2.01 1.98 1.95 2.05 2.21 2.28 2.21 2.09 2.00
0.85 0.64 0.54 0.48 0.64 0.80 1.06 1.60 2.37 2.52 2.51 1.53 0.44 0.58 0.70 0.55 0.53 0.59 0.58 0.59 0.63 0.66 0.72 0.77 0.67 0.70 0.76 0.87 1.04 1.20 1.40 1.49 1.59 1.66 1.72 1.79 1.93 1.91 1.89 1.92 2.02 2.19 2.16 2.01
0.99 0.85 0.62 0.55 0.73 1.04 1.15 1.44 1.94 1.91 1.30 0.62 0.36 0.58 0.63 0.45 0.39 0.40 0.44 0.55 0.59 0.62 0.66 0.71 0.68 0.69 0.73 0.77 0.89 1.05 1.19 1.38 1.54 1.64 1.67 1.69 1.77 1.89 1.83 1.82 1.77 1.89 1.98 1.86
1.01 0.72 0.44 0.41 0.42 0.66 1.03 1.13 1.02 1.37 0.98 0.67 0.56 0.52 0.43 0.23 0.23 0.28 0.35 0.47 0.61 0.68 0.71 0.68 0.68 0.72 0.70 0.76 0.82 0.96 1.06 1.22 1.44 1.62 1.68 1.69 1.72 1.78 1.79 1.75 1.75 1.76 1.78 1.81
1.13 0.90 0.44 0.39 0.52 0.68 0.81 0.99 1.24 1.78 1.50 0.87 0.55 0.52 0.60 0.42 0.41 0.37 0.40 0.49 0.62 0.72 0.79 0.75 0.71 0.77 0.75 0.76 0.80 0.86 1.02 1.13 1.28 1.50 1.71 1.73 1.68 1.65 1.73 1.80 1.83 1.79 1.75 1.77
1.11 1.18 0.73 0.62 0.85 0.90 0.90 1.21 1.51 1.61 1.26 1.04 0.71 0.70 0.72 0.62 0.60 0.53 0.50 0.54 0.64 0.73 0.80 0.75 0.69 0.70 0.75 0.77 0.86 0.89 0.98 1.09 1.20 1.31 1.51 1.66 1.68 1.67 1.70 1.75 1.73 1.77 1.76 1.76
1.05 1.37 0.96 0.56 0.52 0.54 0.76 1.04 1.32 1.66 1.22 0.80 0.75 0.72 0.55 0.52 0.55 0.51 0.50 0.51 0.56 0.66 0.73 0.73 0.66 0.67 0.74 0.83 0.90 0.97 1.01 1.00 1.10 1.21 1.33 1.49 1.62 1.66 1.68 1.65 1.68 1.74 1.76 1.74
1.52 1.95 1.61 1.05 0.86 0.79 0.90 0.83 0.91 1.16 1.18 0.82 0.71 0.62 0.38 0.34 0.36 0.38 0.44 0.48 0.52 0.62 0.70 0.74 0.74 0.71 0.75 0.83 0.91 0.98 1.04 0.98 1.00 1.17 1.29 1.43 1.54 1.56 1.57 1.51 1.58 1.75 1.84 1.82
1.90 2.01 1.41 1.14 0.93 0.87 0.80 0.63 0.65 1.07 1.34 0.76 0.46 0.43 0.30 0.27 0.31 0.35 0.44 0.49 0.52 0.57 0.63 0.72 0.82 0.79 0.75 0.79 0.84 0.87 0.98 1.01 1.00 1.06 1.22 1.35 1.48 1.46 1.42 1.41 1.42 1.56 1.73 1.82
1.66 1.66 0.75 0.41 0.33 0.42 0.49 0.44 0.48 0.69 0.67 0.61 0.37 0.34 0.36 0.36 0.41 0.44 0.48 0.48 0.48 0.49 0.57 0.72 0.82 0.82 0.83 0.86 0.88 0.85 0.88 0.99 1.05 1.02 1.11 1.19 1.32 1.41 1.38 1.34 1.37 1.47 1.59 1.63
1.50 1.51 0.77 0.43 0.24 0.31 0.39 0.32 0.32 0.36 0.33 0.31 0.25 0.29 0.32 0.33 0.33 0.35 0.36 0.42 0.46 0.48 0.52 0.59 0.68 0.75 0.86 0.94 0.96 0.94 0.91 0.95 1.03 1.01 1.06 1.11 1.25 1.38 1.39 1.32 1.36 1.49 1.60 1.59
1.48 1.51 1.32 0.75 0.31 0.55 0.63 0.39 0.34 0.35 0.33 0.31 0.36 0.37 0.31 0.29 0.32 0.39 0.39 0.42 0.46 0.47 0.48 0.49 0.60 0.73 0.83 0.93 0.95 0.97 0.95 0.97 1.03 1.03 1.06 1.11 1.24 1.31 1.36 1.35 1.38 1.49 1.60 1.61
1.25 1.46 1.80 1.22 0.82 1.11 0.58 0.29 0.28 0.33 0.35 0.33 0.33 0.29 0.30 0.34 0.36 0.43 0.43 0.47 0.48 0.50 0.51 0.50 0.59 0.71 0.76 0.83 0.88 0.92 0.89 1.01 1.07 1.06 1.05 1.11 1.19 1.23 1.33 1.37 1.39 1.51 1.58 1.55
0.71 1.36 2.02 1.67 1.16 0.60 0.33 0.28 0.38 0.47 0.47 0.36 0.28 0.21 0.21 0.25 0.32 0.41 0.38 0.43 0.49 0.51 0.54 0.56 0.60 0.69 0.69 0.76 0.82 0.87 0.84 0.93 1.01 1.05 1.01 1.05 1.12 1.17 1.27 1.33 1.40 1.49 1.59 1.54
0.71 1.33 2.20 1.85 1.35 0.65 0.41 0.26 0.30 0.44 0.62 0.36 0.27 0.26 0.25 0.30 0.47 0.47 0.40 0.40 0.41 0.42 0.47 0.55 0.58 0.62 0.65 0.70 0.75 0.78 0.84 0.87 0.95 1.01 0.93 0.98 1.06 1.09 1.19 1.26 1.33 1.42 1.45 1.46
1.16 1.83 2.09 1.52 1.22 0.50 0.31 0.26 0.32 0.70 0.78 0.40 0.34 0.35 0.36 0.46 0.54 0.47 0.43 0.44 0.45 0.45 0.46 0.50 0.52 0.58 0.65 0.69 0.69 0.73 0.82 0.88 0.92 0.99 0.92 0.97 1.00 1.04 1.13 1.21 1.23 1.32 1.39 1.40
0.89 1.25 1.24 1.15 1.29 0.65 0.34 0.40 0.69 0.81 0.47 0.37 0.36 0.36 0.39 0.40 0.37 0.36 0.39 0.44 0.51 0.50 0.46 0.48 0.51 0.56 0.60 0.64 0.68 0.70 0.75 0.82 0.89 0.94 0.94 1.00 1.04 1.05 1.10 1.16 1.16 1.21 1.32 1.38
0.64 0.87 0.98 0.94 0.78 0.51 0.43 0.54 0.58 0.50 0.42 0.34 0.35 0.35 0.38 0.36 0.35 0.38 0.42 0.46 0.53 0.54 0.50 0.51 0.55 0.55 0.58 0.63 0.68 0.74 0.77 0.80 0.89 0.93 0.93 0.99 1.08 1.11 1.12 1.13 1.13 1.18 1.25 1.33
0.53 0.53 0.67 0.62 0.44 0.34 0.33 0.35 0.34 0.32 0.34 0.32 0.32 0.35 0.38 0.38 0.36 0.41 0.43 0.47 0.50 0.52 0.54 0.56 0.59 0.59 0.61 0.64 0.70 0.78 0.82 0.80 0.86 0.91 0.92 0.97 1.03 1.09 1.13 1.10 1.04 1.05 1.15 1.28
0.44 0.49 0.55 0.49 0.32 0.31 0.29 0.27 0.28 0.25 0.23 0.23 0.24 0.26 0.30 0.34 0.36 0.42 0.45 0.48 0.54 0.55 0.58 0.59 0.62 0.65 0.68 0.67 0.73 0.79 0.82 0.81 0.86 0.85 0.84 0.90 0.93 1.02 1.12 1.11 1.06 1.04 1.05 1.24
0.30 0.40 0.52 0.47 0.34 0.40 0.32 0.25 0.25 0.25 0.23 0.24 0.26 0.24 0.23 0.28 0.35 0.39 0.42 0.46 0.55 0.60 0.60 0.62 0.63 0.67 0.73 0.73 0.75 0.79 0.82 0.80 0.80 0.82 0.80 0.83 0.86 0.92 1.00 1.04 1.09 1.21 1.19 1.22